Home   Weather   Aylesbury   Past weeks

Flag for United Kingdom Past Weather in Aylesbury, England, United Kingdom — Yesterday and Last 2 Weeks

Now
38 °F

Chilly.


Feels Like: 36 °F
Forecast: N/A
Wind: 3 mph from South

Location: High Wicombe Hqstc

Current Time: Jan 17, 2017 at 5:25:54 pm

Latest Report: Jan 17, 2017 at 4:00 pm


Visibility: 10 mi

Pressure: 30.61 "Hg

Humidity: 58%

Dew Point: 25 °F

Location of AylesburyLocation

Past Weather in Aylesbury — Graph

°F

Aylesbury Temperature Yesterday

Maximum temperature yesterday: 45 °F (at 1:00 am)
Minimum temperature yesterday: 37 °F (at 10:00 pm)
Average temperature yesterday: 40 °F

High & Low Weather Summary for the Past Weeks

 TemperatureHumidityPressure
High49 °F (Jan 11, 7:00 am)100% (Jan 6, 8:00 am)30.64 "Hg (Jan 6, 8:00 am)
Low29 °F (Jan 5, 7:00 am)51% (Jan 17, 2:00 pm)29.38 "Hg (Jan 12, 4:00 pm)
Average39 °F92%30.21 "Hg
* Reported Jan 2 4:00 pm — Jan 17 4:00 pm, Aylesbury, Weather by CustomWeather, © 2017

Note: Actual official high and low records may vary slightly from our data, if they occured in-between our weather recording intervals... More about our weather records

Advertising

Aylesbury Weather History for the Previous 24 Hours

Scroll right to see more
 ConditionsComfort  
Time TempWeatherWind HumidityBarometerVisibility
4:00 pm
Tue, Jan 17
38 °FChilly.3 mph58%30.61 "Hg10 mi
3:00 pm40 °FChilly.3 mph56%30.61 "Hg12 mi
2:00 pm39 °FChilly.7 mph51%30.60 "Hg19 mi
1:00 pm39 °FChilly.6 mph66%30.60 "Hg12 mi
12:00 pm38 °FChilly.6 mph78%30.61 "Hg6 mi
11:00 am37 °FSmoke.3 mph89%30.62 "Hg4 mi
10:00 am36 °FSmoke.6 mph92%30.60 "Hg3 mi
9:00 am34 °FFog.3 mph95%30.60 "Hg5 mi
8:00 am33 °FFog.5 mph97%30.58 "Hg6 mi
7:00 am34 °FFog.5 mph99%30.56 "Hg2 mi
6:00 am34 °FFog.3 mph100%30.54 "Hg2 mi
5:00 am35 °FFog.2 mph98%30.54 "Hg4 mi
4:00 am36 °FFog.5 mph99%30.52 "Hg2 mi
3:00 am36 °FFog.5 mph100%30.52 "Hg2 mi
2:00 am36 °FChilly.3 mph100%30.50 "Hg2 mi
1:00 am36 °FFog.1 mph98%30.49 "Hg2 mi
12:00 am37 °FFog.1 mph99%30.49 "Hg2 mi
11:00 pm
Mon, Jan 16
37 °FFog.3 mph99%30.47 "Hg2 mi
10:00 pm37 °FFog.3 mph98%30.47 "Hg4 mi
9:00 pm37 °FFog.5 mph98%30.45 "Hg3 mi
8:00 pm37 °FFog.6 mph100%30.44 "Hg3 mi
7:00 pm38 °FFog.6 mph99%30.42 "Hg2 mi
6:00 pm38 °FChilly.7 mph100%30.39 "Hg1 mi
5:00 pm38 °FDrizzle. Overcast.6 mph100%30.38 "Hg1 mi
Weather by CustomWeather, © 2017

See weather overviewHow to use our weather pages